CTV778 WIII-WAHI

Flight info

Callsign CTV778
Flight time 0h 50m
Altitude 33000
Route PW W17 CLP
Aircraft A320/M-SDE3FGHIRWY/LB1

Departure

Time 2026-05-06 08:21
Airport Soekarno-Hatta International Airport (WIII)

Arrival

Time 2026-05-06 09:12
Airport Yogyakarta International Airport (WAHI)
Time Latitude Longitude Altitude Speed Heading
2026-05-06 07:07 -6.13090 106.65144 38 ft 0 kts 101°
2026-05-06 08:09 -6.13087 106.65128 38 ft 4 kts 101°
2026-05-06 08:09 -6.13082 106.65101 38 ft 4 kts 101°
2026-05-06 08:09 -6.13079 106.65088 38 ft 4 kts 95°
2026-05-06 08:09 -6.13085 106.65054 38 ft 4 kts 53°
2026-05-06 08:10 -6.13104 106.65039 38 ft 4 kts
2026-05-06 08:10 -6.13119 106.65040 38 ft 4 kts 336°
2026-05-06 08:10 -6.13129 106.65045 38 ft 1 kts 336°
2026-05-06 08:13 -6.13125 106.65043 38 ft 2 kts 336°
2026-05-06 08:13 -6.13109 106.65034 38 ft 4 kts 323°
2026-05-06 08:14 -6.13096 106.65006 38 ft 5 kts 279°
2026-05-06 08:14 -6.13101 106.64964 37 ft 7 kts 255°
2026-05-06 08:14 -6.13120 106.64911 38 ft 9 kts 248°
2026-05-06 08:14 -6.13151 106.64849 38 ft 11 kts 224°
2026-05-06 08:15 -6.13223 106.64851 37 ft 12 kts 159°
2026-05-06 08:15 -6.13305 106.64884 37 ft 14 kts 158°
2026-05-06 08:15 -6.13400 106.64922 38 ft 16 kts 158°
2026-05-06 08:15 -6.13508 106.64966 37 ft 18 kts 158°
2026-05-06 08:16 -6.13629 106.65013 39 ft 18 kts 158°
2026-05-06 08:16 -6.13725 106.65050 39 ft 12 kts 160°
2026-05-06 08:16 -6.13795 106.65028 38 ft 12 kts 245°
2026-05-06 08:16 -6.13828 106.64943 39 ft 14 kts 248°
2026-05-06 08:17 -6.13868 106.64844 39 ft 16 kts 248°
2026-05-06 08:17 -6.13913 106.64734 39 ft 18 kts 248°
2026-05-06 08:17 -6.13961 106.64610 38 ft 20 kts 247°
2026-05-06 08:17 -6.14015 106.64474 39 ft 22 kts 248°
2026-05-06 08:18 -6.14064 106.64353 37 ft 17 kts 248°
2026-05-06 08:18 -6.14130 106.64304 39 ft 10 kts 185°
2026-05-06 08:18 -6.14175 106.64316 41 ft 5 kts 149°
2026-05-06 08:18 -6.14188 106.64327 41 ft 0 kts 136°
2026-05-06 08:19 -6.14189 106.64328 41 ft 0 kts 134°
2026-05-06 08:19 -6.14194 106.64334 41 ft 2 kts 129°
2026-05-06 08:20 -6.14202 106.64354 42 ft 5 kts 110°
2026-05-06 08:20 -6.14217 106.64394 41 ft 7 kts 110°
2026-05-06 08:20 -6.14218 106.64453 39 ft 10 kts 71°
2026-05-06 08:20 -6.14210 106.64473 40 ft 2 kts 69°
2026-05-06 08:21 -6.14193 106.64517 40 ft 25 kts 69°
2026-05-06 08:21 -6.14009 106.64975 39 ft 113 kts 67°
2026-05-06 08:21 -6.13627 106.65920 214 ft 165 kts 69°
2026-05-06 08:21 -6.13199 106.67056 779 ft 180 kts 71°
2026-05-06 08:22 -6.12745 106.68263 1220 ft 190 kts 67°
2026-05-06 08:22 -6.12281 106.69418 1619 ft 161 kts 66°
2026-05-06 08:22 -6.11842 106.70589 1667 ft 209 kts 73°
2026-05-06 08:22 -6.11444 106.72002 2696 ft 212 kts 75°
2026-05-06 08:23 -6.10949 106.73530 3186 ft 243 kts 73°
2026-05-06 08:23 -6.10634 106.75263 3642 ft 260 kts 84°
2026-05-06 08:23 -6.10479 106.77105 4101 ft 262 kts 87°
2026-05-06 08:23 -6.10400 106.78942 4559 ft 264 kts 88°
2026-05-06 08:24 -6.10350 106.80770 5120 ft 266 kts 89°
2026-05-06 08:24 -6.10311 106.82636 5697 ft 268 kts 89°
2026-05-06 08:24 -6.10271 106.84518 6275 ft 271 kts 89°
2026-05-06 08:24 -6.10227 106.86417 6865 ft 273 kts 89°
2026-05-06 08:25 -6.10181 106.88351 7573 ft 279 kts 89°
2026-05-06 08:25 -6.10135 106.90307 8334 ft 281 kts 89°
2026-05-06 08:25 -6.10093 106.92285 9027 ft 285 kts 89°
2026-05-06 08:25 -6.10051 106.94289 9699 ft 289 kts 89°
2026-05-06 08:26 -6.10003 106.96325 10276 ft 297 kts 89°
2026-05-06 08:26 -6.09952 106.98454 10583 ft 313 kts 90°
2026-05-06 08:26 -6.10222 107.00669 10863 ft 328 kts 106°
2026-05-06 08:26 -6.11180 107.02786 11199 ft 339 kts 124°
2026-05-06 08:27 -6.12777 107.04549 11698 ft 345 kts 141°
2026-05-06 08:27 -6.14870 107.05752 12265 ft 350 kts 159°
2026-05-06 08:27 -6.17182 107.06552 12824 ft 353 kts 160°
2026-05-06 08:27 -6.19527 107.07351 13361 ft 358 kts 160°
2026-05-06 08:28 -6.21896 107.08160 13890 ft 362 kts 160°
2026-05-06 08:28 -6.24289 107.08980 14423 ft 365 kts 160°
2026-05-06 08:28 -6.26700 107.09809 14948 ft 368 kts 160°
2026-05-06 08:28 -6.29129 107.10648 15447 ft 371 kts 160°
2026-05-06 08:29 -6.31583 107.11496 15937 ft 375 kts 160°
2026-05-06 08:29 -6.34061 107.12351 16428 ft 378 kts 160°
2026-05-06 08:29 -6.36559 107.13213 16915 ft 381 kts 160°
2026-05-06 08:29 -6.39022 107.14216 17395 ft 384 kts 151°
2026-05-06 08:30 -6.41238 107.15712 17877 ft 385 kts 138°
2026-05-06 08:30 -6.43085 107.17666 18338 ft 387 kts 126°
2026-05-06 08:30 -6.44481 107.19986 18800 ft 389 kts 115°
2026-05-06 08:30 -6.45668 107.22445 19259 ft 393 kts 115°
2026-05-06 08:31 -6.46871 107.24921 19712 ft 396 kts 115°
2026-05-06 08:31 -6.48086 107.27409 20164 ft 398 kts 115°
2026-05-06 08:31 -6.49312 107.29920 20615 ft 401 kts 115°
2026-05-06 08:31 -6.50546 107.32446 21067 ft 404 kts 115°
2026-05-06 08:32 -6.51788 107.34987 21502 ft 406 kts 115°
2026-05-06 08:32 -6.53038 107.37547 21912 ft 409 kts 115°
2026-05-06 08:32 -6.54340 107.40099 22318 ft 411 kts 121°
2026-05-06 08:32 -6.56096 107.42420 22727 ft 414 kts 133°
2026-05-06 08:33 -6.58306 107.44294 23047 ft 419 kts 146°
2026-05-06 08:33 -6.60901 107.45641 23371 ft 423 kts 159°
2026-05-06 08:33 -6.63747 107.46409 23701 ft 426 kts 168°
2026-05-06 08:33 -6.66674 107.46974 24001 ft 429 kts 168°
2026-05-06 08:34 -6.69613 107.47552 24302 ft 432 kts 168°
2026-05-06 08:34 -6.75531 107.48726 24901 ft 436 kts 168°
2026-05-06 08:34 -6.78511 107.49314 25200 ft 438 kts 168°
2026-05-06 08:35 -6.81505 107.49920 25493 ft 439 kts 165°
2026-05-06 08:35 -6.84391 107.50921 25792 ft 439 kts 154°
2026-05-06 08:35 -6.87020 107.52482 26064 ft 440 kts 142°
2026-05-06 08:35 -6.89285 107.54548 26318 ft 441 kts 130°
2026-05-06 08:36 -6.91097 107.57037 26569 ft 442 kts 119°
2026-05-06 08:36 -6.92507 107.59792 26814 ft 444 kts 116°
2026-05-06 08:36 -6.93896 107.62578 27057 ft 446 kts 116°
2026-05-06 08:36 -6.95301 107.65370 27304 ft 448 kts 116°
2026-05-06 08:37 -6.96720 107.68168 27541 ft 450 kts 116°
2026-05-06 08:37 -6.98147 107.70985 27773 ft 452 kts 116°
2026-05-06 08:37 -6.99572 107.73812 28015 ft 454 kts 116°
2026-05-06 08:37 -7.00997 107.76649 28251 ft 455 kts 116°
2026-05-06 08:38 -7.02428 107.79504 28491 ft 457 kts 116°
2026-05-06 08:38 -7.03862 107.82367 28722 ft 459 kts 116°
2026-05-06 08:38 -7.05302 107.85241 28950 ft 461 kts 116°
2026-05-06 08:38 -7.06747 107.88127 29178 ft 463 kts 116°
2026-05-06 08:39 -7.08199 107.91023 29410 ft 464 kts 116°
2026-05-06 08:39 -7.09658 107.93929 29634 ft 466 kts 117°
2026-05-06 08:39 -7.11120 107.96841 29854 ft 467 kts 117°
2026-05-06 08:39 -7.12590 107.99770 30071 ft 469 kts 117°
2026-05-06 08:40 -7.14063 108.02704 30344 ft 469 kts 117°
2026-05-06 08:40 -7.15533 108.05634 30662 ft 468 kts 117°
2026-05-06 08:40 -7.17001 108.08558 30996 ft 467 kts 117°
2026-05-06 08:40 -7.18462 108.11471 31336 ft 466 kts 117°
2026-05-06 08:41 -7.19920 108.14381 31665 ft 465 kts 117°
2026-05-06 08:41 -7.21373 108.17291 31991 ft 465 kts 117°
2026-05-06 08:41 -7.22824 108.20196 32333 ft 464 kts 117°
2026-05-06 08:41 -7.24274 108.23094 32671 ft 463 kts 117°
2026-05-06 08:42 -7.25721 108.25988 32787 ft 460 kts 117°
2026-05-06 08:42 -7.28594 108.31717 32805 ft 458 kts 117°
2026-05-06 08:43 -7.31236 108.36988 32804 ft 458 kts 117°
2026-05-06 08:43 -7.34096 108.42709 32803 ft 458 kts 117°
2026-05-06 08:44 -7.36961 108.48434 32804 ft 458 kts 117°
2026-05-06 08:44 -7.39822 108.54169 32806 ft 458 kts 117°
2026-05-06 08:45 -7.42691 108.59904 32809 ft 458 kts 117°
2026-05-06 08:45 -7.45555 108.65635 32810 ft 458 kts 117°
2026-05-06 08:46 -7.48416 108.71366 32808 ft 458 kts 117°
2026-05-06 08:46 -7.51277 108.77102 32804 ft 458 kts 117°
2026-05-06 08:47 -7.54138 108.82832 32802 ft 458 kts 117°
2026-05-06 08:47 -7.56994 108.88565 32800 ft 458 kts 117°
2026-05-06 08:48 -7.59370 108.93332 32800 ft 458 kts 117°
2026-05-06 08:48 -7.62233 108.99083 32631 ft 461 kts 117°
2026-05-06 08:48 -7.63623 109.02008 31714 ft 465 kts 112°
2026-05-06 08:49 -7.64572 109.05110 31142 ft 461 kts 102°
2026-05-06 08:49 -7.65057 109.08292 30576 ft 458 kts 97°
2026-05-06 08:49 -7.65452 109.11463 30005 ft 454 kts 97°
2026-05-06 08:49 -7.65843 109.14604 29439 ft 450 kts 98°
2026-05-06 08:50 -7.66229 109.17722 28878 ft 446 kts 97°
2026-05-06 08:50 -7.66612 109.20812 28324 ft 443 kts 97°
2026-05-06 08:50 -7.66993 109.23880 27774 ft 439 kts 97°
2026-05-06 08:50 -7.67371 109.26915 27240 ft 435 kts 97°
2026-05-06 08:51 -7.67747 109.29920 26712 ft 431 kts 97°
2026-05-06 08:51 -7.68118 109.32906 26205 ft 427 kts 97°
2026-05-06 08:51 -7.68486 109.35860 25700 ft 423 kts 97°
2026-05-06 08:51 -7.68850 109.38782 25225 ft 419 kts 97°
2026-05-06 08:52 -7.69213 109.41685 24750 ft 415 kts 97°
2026-05-06 08:52 -7.69572 109.44564 24281 ft 413 kts 97°
2026-05-06 08:52 -7.69927 109.47426 23822 ft 410 kts 97°
2026-05-06 08:52 -7.70280 109.50268 23345 ft 408 kts 97°
2026-05-06 08:53 -7.70631 109.53103 22871 ft 406 kts 97°
2026-05-06 08:53 -7.70979 109.55919 22385 ft 404 kts 97°
2026-05-06 08:53 -7.71325 109.58719 21903 ft 401 kts 97°
2026-05-06 08:53 -7.71668 109.61502 21403 ft 399 kts 97°
2026-05-06 08:54 -7.72009 109.64272 20899 ft 397 kts 97°
2026-05-06 08:54 -7.72349 109.67023 20382 ft 395 kts 97°
2026-05-06 08:54 -7.72690 109.69763 19874 ft 392 kts 97°
2026-05-06 08:54 -7.73031 109.72484 19354 ft 390 kts 97°
2026-05-06 08:55 -7.73368 109.75188 18843 ft 387 kts 97°
2026-05-06 08:55 -7.73702 109.77871 18314 ft 385 kts 97°
2026-05-06 08:55 -7.74032 109.80536 17803 ft 382 kts 97°
2026-05-06 08:55 -7.74354 109.83182 17282 ft 379 kts 97°
2026-05-06 08:56 -7.74670 109.85803 16779 ft 375 kts 97°
2026-05-06 08:56 -7.74985 109.88405 16274 ft 372 kts 97°
2026-05-06 08:56 -7.75347 109.90974 15765 ft 368 kts 104°
2026-05-06 08:56 -7.76377 109.93296 15265 ft 363 kts 127°
2026-05-06 08:57 -7.78189 109.95023 14766 ft 359 kts 149°
2026-05-06 08:57 -7.80475 109.95902 14581 ft 347 kts 170°
2026-05-06 08:57 -7.82854 109.95912 14415 ft 345 kts 190°
2026-05-06 08:57 -7.85216 109.95326 14221 ft 345 kts 194°
2026-05-06 08:58 -7.87533 109.94708 14034 ft 344 kts 194°
2026-05-06 08:58 -7.89840 109.94085 13844 ft 343 kts 194°
2026-05-06 08:58 -7.92114 109.93471 13663 ft 342 kts 194°
2026-05-06 08:58 -7.94444 109.92844 13469 ft 342 kts 194°
2026-05-06 08:59 -7.96738 109.92226 13279 ft 341 kts 194°
2026-05-06 08:59 -7.99027 109.91610 13089 ft 340 kts 194°
2026-05-06 08:59 -8.01308 109.90997 12916 ft 339 kts 194°
2026-05-06 08:59 -8.03590 109.90385 12658 ft 339 kts 193°
2026-05-06 09:00 -8.05889 109.89777 11983 ft 343 kts 193°
2026-05-06 09:00 -8.08205 109.89169 11408 ft 344 kts 193°
2026-05-06 09:00 -8.10525 109.88561 10830 ft 345 kts 193°
2026-05-06 09:00 -8.12842 109.87957 10261 ft 344 kts 192°
2026-05-06 09:01 -8.15188 109.87885 9927 ft 333 kts 165°
2026-05-06 09:01 -8.17201 109.88864 9801 ft 316 kts 138°
2026-05-06 09:01 -8.18472 109.90545 9672 ft 300 kts 112°
2026-05-06 09:01 -8.19039 109.92575 9268 ft 298 kts 102°
2026-05-06 09:02 -8.19482 109.94608 8962 ft 294 kts 101°
2026-05-06 09:02 -8.19609 109.96636 8617 ft 290 kts 78°
2026-05-06 09:02 -8.18804 109.98439 8237 ft 287 kts 50°
2026-05-06 09:02 -8.17203 109.99649 7831 ft 287 kts 21°
2026-05-06 09:03 -8.15264 110.00114 7466 ft 285 kts 12°
2026-05-06 09:03 -8.13364 110.00415 7345 ft 275 kts
2026-05-06 09:03 -8.11479 110.00169 7186 ft 267 kts 343°
2026-05-06 09:03 -8.09814 109.99364 6918 ft 265 kts 330°
2026-05-06 09:04 -8.08234 109.98418 6574 ft 264 kts 330°
2026-05-06 09:04 -8.06655 109.97473 6236 ft 263 kts 330°
2026-05-06 09:04 -8.05088 109.96532 5918 ft 261 kts 330°
2026-05-06 09:04 -8.03541 109.95602 5499 ft 256 kts 330°
2026-05-06 09:05 -8.02009 109.94682 4873 ft 257 kts 330°
2026-05-06 09:05 -8.00470 109.93757 4252 ft 258 kts 330°
2026-05-06 09:05 -7.98930 109.92832 3656 ft 258 kts 330°
2026-05-06 09:05 -7.97385 109.91910 3078 ft 258 kts 329°
2026-05-06 09:06 -7.95873 109.91005 2742 ft 246 kts 329°
2026-05-06 09:06 -7.94457 109.90157 2522 ft 231 kts 329°
2026-05-06 09:06 -7.93021 109.89486 2226 ft 220 kts 347°
2026-05-06 09:06 -7.91574 109.89156 2206 ft 210 kts 348°
2026-05-06 09:07 -7.90205 109.88891 2158 ft 193 kts 360°
2026-05-06 09:07 -7.88908 109.89086 2005 ft 185 kts 22°
2026-05-06 09:07 -7.87834 109.89735 1864 ft 176 kts 46°
2026-05-06 09:07 -7.87085 109.90647 1740 ft 162 kts 58°
2026-05-06 09:08 -7.86458 109.91545 1626 ft 150 kts 67°
2026-05-06 09:08 -7.86126 109.92503 1562 ft 143 kts 85°
2026-05-06 09:08 -7.86142 109.93476 1484 ft 137 kts 112°
2026-05-06 09:08 -7.86547 109.94279 1910 ft 117 kts 128°
2026-05-06 09:09 -7.86887 109.95053 2057 ft 134 kts 106°
2026-05-06 09:09 -7.87056 109.96008 1804 ft 138 kts 104°
2026-05-06 09:09 -7.87306 109.96930 1690 ft 137 kts 113°
2026-05-06 09:09 -7.87632 109.97830 1466 ft 136 kts 114°
2026-05-06 09:10 -7.87980 109.98711 1283 ft 135 kts 114°
2026-05-06 09:10 -7.88311 109.99597 1131 ft 135 kts 112°
2026-05-06 09:10 -7.88607 110.00491 894 ft 134 kts 112°
2026-05-06 09:10 -7.88932 110.01374 720 ft 134 kts 114°
2026-05-06 09:11 -7.89269 110.02254 543 ft 134 kts 113°
2026-05-06 09:11 -7.89582 110.03132 363 ft 133 kts 114°
2026-05-06 09:11 -7.89907 110.04007 180 ft 133 kts 114°
2026-05-06 09:11 -7.90244 110.04897 42 ft 137 kts 111°
2026-05-06 09:12 -7.90485 110.05599 45 ft 72 kts 112°
2026-05-06 09:12 -7.90577 110.05837 43 ft 22 kts 111°
2026-05-06 09:12 -7.90630 110.05987 44 ft 24 kts 109°
2026-05-06 09:12 -7.90665 110.06159 41 ft 26 kts 91°
2026-05-06 09:13 -7.90653 110.06283 41 ft 17 kts 76°
2026-05-06 09:13 -7.90620 110.06349 41 ft 11 kts 27°
2026-05-06 09:13 -7.90562 110.06306 42 ft 13 kts 289°
2026-05-06 09:13 -7.90530 110.06214 42 ft 15 kts 290°
2026-05-06 09:14 -7.90493 110.06115 44 ft 16 kts 291°
2026-05-06 09:14 -7.90454 110.06007 45 ft 17 kts 290°
2026-05-06 09:14 -7.90411 110.05884 44 ft 20 kts 289°
2026-05-06 09:14 -7.90368 110.05768 43 ft 15 kts 303°
2026-05-06 09:15 -7.90270 110.05772 37 ft 18 kts 19°
2026-05-06 09:15 -7.90204 110.05815 38 ft 11 kts 75°
2026-05-06 09:15 -7.90223 110.05877 38 ft 8 kts 111°
2026-05-06 09:15 -7.90200 110.05918 38 ft 8 kts 40°
2026-05-06 09:16 -7.90157 110.05939 38 ft 5 kts 19°
2026-05-06 09:16 -7.90140 110.05945 38 ft 1 kts 20°